EW6449 Weather Reports


time (UTC)temp
C
wind
direction
speed
KPH
gust
KPH
rain 1hr
cm
rain 24hr
cm
rain mn
cm
humidity
%
barometer
mb
20260502152149 26 77 1.6 8.0 0.00 0.00 0.00 25 1008.8
20260502151646 26 27 6.4 6.4 0.00 0.00 0.00 25 1008.9
20260502151143 26 31 6.4 8.0 0.00 0.00 0.00 25 1008.8
20260502150641 26 15 1.6 6.4 0.00 0.00 0.00 27 1008.9
20260502150137 25 5 3.2 6.4 0.00 0.00 0.00 26 1008.7
20260502130526 21 18 0.0 8.0 0.00 0.00 0.00 29 1007.5
20260502123509 18 19 3.2 3.2 0.00 0.00 0.00 35 1006.9
20260502123005 19 23 3.2 3.2 0.00 0.00 0.00 34 1007.2
20260502122502 19 0 1.6 1.6 0.00 0.00 0.00 34 1006.9
20260502121959 19 29 0.0 3.2 0.00 0.00 0.00 34 1006.9
20260502121456 20 29 1.6 3.2 0.00 0.00 0.00 33 1006.8
20260502120954 20 40 3.2 3.2 0.00 0.00 0.00 31 1006.7
20260502120450 20 45 3.2 3.2 0.00 0.00 0.00 31 1006.7
20260502115445 21 23 0.0 1.6 0.00 0.00 0.00 30 1006.7
20260502114940 21 29 0.0 3.2 0.00 0.00 0.00 29 1006.8
20260502114437 22 32 3.2 4.8 0.00 0.00 0.00 27 1006.5
20260502113935 22 29 3.2 6.4 0.00 0.00 0.00 27 1006.4
20260502113432 22 26 3.2 4.8 0.00 0.00 0.00 27 1006.5
20260502112931 22 36 3.2 9.7 0.00 0.00 0.00 27 1006.3
20260502112428 22 30 3.2 6.4 0.00 0.00 0.00 28 1006.5
20260502111925 22 7 3.2 6.4 0.00 0.00 0.00 27 1006.4
20260502111422 21 0 4.8 4.8 0.00 0.00 0.00 28 1006.4
20260502110920 21 26 1.6 4.8 0.00 0.00 0.00 28 1006.5
20260502110417 21 22 3.2 4.8 0.00 0.00 0.00 28 1006.5
20260502105914 21 7 3.2 4.8 0.00 0.00 0.00 28 1006.5
20260502105411 21 30 3.2 4.8 0.00 0.00 0.00 28 1006.6
20260502104909 22 15 3.2 4.8 0.00 0.00 0.00 27 1006.5
20260502104406 22 9 3.2 4.8 0.00 0.00 0.00 27 1006.4
20260502103904 21 0 3.2 4.8 0.00 0.00 0.00 28 1006.3
20260502103401 21 16 3.2 3.2 0.00 0.00 0.00 29 1006.4
20260502102858 21 356 3.2 4.8 0.00 0.00 0.00 28 1006.3
20260502102355 21 4 3.2 3.2 0.00 0.00 0.00 29 1006.3
20260502101852 21 36 3.2 4.8 0.00 0.00 0.00 29 1006.3
20260502101350 22 14 3.2 3.2 0.00 0.00 0.00 29 1006.2
20260502100848 22 12 3.2 4.8 0.00 0.00 0.00 27 1006.4
20260502100347 22 16 3.2 4.8 0.00 0.00 0.00 27 1006.3
20260502091321 23 28 3.2 6.4 0.00 0.00 0.00 26 1005.9
20260502090819 23 41 3.2 6.4 0.00 0.00 0.00 25 1005.9
20260502090315 23 24 3.2 4.8 0.00 0.00 0.00 25 1006.0
20260502071210 23 20 4.8 4.8 0.00 0.00 0.00 26 1005.6
20260502070709 23 28 3.2 8.0 0.00 0.00 0.00 26 1005.5
20260502070206 23 14 6.4 6.4 0.00 0.00 0.00 26 1005.4
20260502065704 23 3 4.8 8.0 0.00 0.00 0.00 26 1005.5
20260502065201 23 2 4.8 6.4 0.00 0.00 0.00 26 1005.2
20260502064700 22 16 4.8 4.8 0.00 0.00 0.00 27 1005.3
20260502064157 22 16 3.2 3.2 0.00 0.00 0.00 29 1005.3
20260502063655 22 342 3.2 3.2 0.00 0.00 0.00 28 1005.2
20260502063152 22 12 1.6 3.2 0.00 0.00 0.00 27 1005.2
20260502062649 22 12 1.6 3.2 0.00 0.00 0.00 28 1005.2
20260502062147 23 20 1.6 3.2 0.00 0.00 0.00 28 1005.4
20260502061645 23 0 3.2 4.8 0.00 0.00 0.00 28 1005.3
20260502061142 24 29 1.6 3.2 0.00 0.00 0.00 26 1004.9
20260502060642 23 29 0.0 3.2 0.00 0.00 0.00 26 1004.9
20260502060139 23 26 1.6 3.2 0.00 0.00 0.00 26 1004.7
20260502055637 22 29 1.6 3.2 0.00 0.00 0.00 30 1004.7
20260502055135 22 6 1.6 3.2 0.00 0.00 0.00 30 1004.6
20260502054634 22 18 1.6 3.2 0.00 0.00 0.00 30 1004.6
20260502054131 23 16 3.2 3.2 0.00 0.00 0.00 28 1004.7
20260502053628 22 11 3.2 3.2 0.00 0.00 0.00 30 1004.9
20260502053125 23 6 1.6 1.6 0.00 0.00 0.00 29 1004.7
20260502052623 23 5 1.6 3.2 0.00 0.00 0.00 28 1004.7
20260502052121 23 18 1.6 3.2 0.00 0.00 0.00 28 1004.7
20260502051619 23 14 1.6 3.2 0.00 0.00 0.00 27 1004.4
20260502051117 23 11 3.2 3.2 0.00 0.00 0.00 28 1004.5
20260502050613 23 15 1.6 3.2 0.00 0.00 0.00 28 1004.7
20260502050110 23 12 1.6 3.2 0.00 0.00 0.00 27 1004.5
20260502045606 23 5 1.6 3.2 0.00 0.00 0.00 27 1004.3
20260502045104 23 23 3.2 3.2 0.00 0.00 0.00 26 1004.3
20260502044600 24 15 3.2 3.2 0.00 0.00 0.00 26 1004.4
20260502044057 24 10 3.2 3.2 0.00 0.00 0.00 26 1004.4
20260502043554 25 10 3.2 3.2 0.00 0.00 0.00 26 1004.5
20260502043050 25 10 3.2 3.2 0.00 0.00 0.00 26 1004.4
20260502042545 25 26 1.6 1.6 0.00 0.00 0.00 25 1004.2
20260502042043 26 20 1.6 3.2 0.00 0.00 0.00 25 1004.5
20260502041541 26 23 1.6 1.6 0.00 0.00 0.00 25 1004.2
20260502041037 26 14 0.0 1.6 0.00 0.00 0.00 25 1004.1
20260502040534 25 23 1.6 3.2 0.00 0.00 0.00 25 1004.0
20260502040031 26 20 1.6 3.2 0.00 0.00 0.00 25 1003.9
20260502035527 26 20 1.6 3.2 0.00 0.00 0.00 25 1004.1
20260502035025 26 12 1.6 3.2 0.00 0.00 0.00 26 1004.0
20260502034522 26 29 1.6 1.6 0.00 0.00 0.00 25 1003.8
20260502034021 26 20 1.6 1.6 0.00 0.00 0.00 25 1004.0
20260502033519 25 18 1.6 3.2 0.00 0.00 0.00 26 1004.0
20260502033015 26 16 3.2 3.2 0.00 0.00 0.00 26 1003.8
20260502032511 26 5 3.2 3.2 0.00 0.00 0.00 26 1003.8
20260502032008 26 20 1.6 3.2 0.00 0.00 0.00 25 1003.7
20260502031506 27 29 3.2 3.2 0.00 0.00 0.00 24 1003.7
20260502031004 27 36 3.2 3.2 0.00 0.00 0.00 23 1003.4
20260502030502 27 29 3.2 3.2 0.00 0.00 0.00 23 1003.4
20260502030000 28 23 1.6 3.2 0.00 0.00 0.00 23 1003.5
20260502025457 28 15 0.0 3.2 0.00 0.00 0.00 22 1003.3
20260502024955 28 8 1.6 3.2 0.00 0.00 0.00 22 1003.2
20260502024452 28 18 3.2 3.2 0.00 0.00 0.00 22 1003.1
20260502023950 28 82 0.0 3.2 0.00 0.00 0.00 22 1003.1
20260502023448 28 35 0.0 6.4 0.00 0.00 0.00 22 1003.1
20260502022945 28 11 0.0 3.2 0.00 0.00 0.00 21 1003.1
20260502022441 29 82 0.0 3.2 0.00 0.00 0.00 21 1003.0
20260502021938 28 20 1.6 3.2 0.00 0.00 0.00 22 1002.9
20260502021436 29 90 0.0 3.2 0.00 0.00 0.00 21 1002.9
20260502020933 29 77 0.0 3.2 0.00 0.00 0.00 21 1003.1
20260502020431 29 23 0.0 3.2 0.00 0.00 0.00 20 1002.7
20260502015927 30 40 0.0 3.2 0.00 0.00 0.00 20 1002.8
20260502015425 30 23 1.6 3.2 0.00 0.00 0.00 21 1002.9
20260502014921 30 26 0.0 3.2 0.00 0.00 0.00 21 1002.8
20260502014419 30 23 0.0 3.2 0.00 0.00 0.00 19 1002.8
20260502013915 30 29 0.0 3.2 0.00 0.00 0.00 19 1002.7
20260502013410 30 26 1.6 3.2 0.00 0.00 0.00 20 1002.8
20260502012907 30 60 1.6 3.2 0.00 0.00 0.00 20 1002.5
20260502012405 30 60 1.6 4.8 0.00 0.00 0.00 20 1002.7
20260502011902 30 90 1.6 3.2 0.00 0.00 0.00 19 1002.7
20260502011358 31 54 1.6 4.8 0.00 0.00 0.00 19 1002.8
20260502010855 31 26 3.2 4.8 0.00 0.00 0.00 20 1002.7
20260502010352 31 54 1.6 3.2 0.00 0.00 0.00 20 1002.9
20260502005848 32 4 3.2 6.4 0.00 0.00 0.00 21 1002.9
20260502005346 31 15 0.0 4.8 0.00 0.00 0.00 19 1003.1
20260502004843 32 57 0.0 4.8 0.00 0.00 0.00 19 1002.8
20260502004340 33 18 3.2 3.2 0.00 0.00 0.00 20 1003.0
20260502003837 32 327 3.2 4.8 0.00 0.00 0.00 20 1002.7
20260502003334 32 0 3.2 4.8 0.00 0.00 0.00 21 1003.0
20260502002831 31 56 0.0 4.8 0.00 0.00 0.00 21 1002.8
20260502002328 31 12 1.6 3.2 0.00 0.00 0.00 20 1003.0
20260502001825 32 75 0.0 3.2 0.00 0.00 0.00 20 1003.0
20260502001323 31 22 3.2 3.2 0.00 0.00 0.00 24 1002.8
20260502000820 32 23 3.2 3.2 0.00 0.00 0.00 23 1003.1
20260502000318 32 37 3.2 8.0 0.00 0.00 0.00 22 1003.0
20260501235814 32 34 4.8 9.7 0.00 0.00 0.00 21 1002.9
20260501235310 32 292 4.8 8.0 0.00 0.00 0.00 20 1003.2
20260501234805 32 36 3.2 4.8 0.00 0.00 0.00 23 1003.0
20260501234303 32 37 3.2 4.8 0.00 0.00 0.00 20 1002.9
20260501233801 32 341 4.8 8.0 0.00 0.00 0.00 22 1003.0
20260501233258 31 48 3.2 4.8 0.00 0.00 0.00 23 1003.1
20260501232753 31 19 3.2 4.8 0.00 0.00 0.00 24 1003.0
20260501232251 31 64 4.8 4.8 0.00 0.00 0.00 22 1003.1
20260501231748 31 315 4.8 11.3 0.00 0.00 0.00 22 1003.1
20260501231247 32 343 4.8 9.7 0.00 0.00 0.00 21 1003.0
20260501230745 32 32 3.2 8.0 0.00 0.00 0.00 22 1003.1
20260501230243 32 350 3.2 6.4 0.00 0.00 0.00 20 1003.2
20260501225740 32 23 3.2 4.8 0.00 0.00 0.00 23 1003.3
20260501225237 31 30 0.0 4.8 0.00 0.00 0.00 21 1003.4
20260501224733 31 30 0.0 8.0 0.00 0.00 0.00 20 1003.5
20260501224231 31 35 1.6 4.8 0.00 0.00 0.00 23 1003.4
20260501223727 30 30 3.2 4.8 0.00 0.00 0.00 26 1003.6
20260501223224 30 74 1.6 4.8 0.00 0.00 0.00 22 1003.6
20260501222720 31 12 1.6 8.0 0.00 0.00 0.00 22 1004.0
20260501222217 31 340 1.6 6.4 0.00 0.00 0.00 21 1004.0
20260501221714 30 97 1.6 4.8 0.00 0.00 0.00 21 1004.0
20260501221211 30 105 1.6 4.8 0.00 0.00 0.00 21 1004.0
20260501220709 31 15 3.2 3.2 0.00 0.00 0.00 22 1004.0
20260501220206 30 30 3.2 3.2 0.00 0.00 0.00 22 1003.8
20260501215703 31 29 3.2 6.4 0.00 0.00 0.00 23 1004.1
20260501215158 30 98 1.6 3.2 0.00 0.00 0.00 22 1004.4
20260501214653 30 358 6.4 11.3 0.00 0.00 0.00 23 1004.4
20260501214148 30 38 3.2 4.8 0.00 0.00 0.00 26 1004.4
20260501213646 29 37 0.0 8.0 0.00 0.00 0.00 24 1004.5
20260501213141 30 16 3.2 4.8 0.00 0.00 0.00 26 1004.7
20260501212638 30 37 3.2 4.8 0.00 0.00 0.00 26 1004.6
20260501212135 29 117 3.2 3.2 0.00 0.00 0.00 24 1005.1
20260501211632 30 33 3.2 3.2 0.00 0.00 0.00 26 1005.1
20260501211130 30 0 3.2 3.2 0.00 0.00 0.00 27 1005.1
20260501210626 28 25 4.8 6.4 0.00 0.00 0.00 26 1005.1
20260501210123 30 40 3.2 3.2 0.00 0.00 0.00 26 1005.3
20260501205619 30 352 1.6 4.8 0.00 0.00 0.00 26 1005.0
20260501205117 29 191 3.2 12.9 0.00 0.00 0.00 25 1005.1
20260501204613 28 0 4.8 6.4 0.00 0.00 0.00 25 1005.2
20260501204109 28 350 3.2 4.8 0.00 0.00 0.00 28 1005.3
20260501203606 28 54 0.0 4.8 0.00 0.00 0.00 27 1005.4
20260501203103 29 90 1.6 3.2 0.00 0.00 0.00 25 1005.5
20260501202600 28 0 4.8 6.4 0.00 0.00 0.00 26 1005.7
20260501202057 28 348 4.8 9.7 0.00 0.00 0.00 27 1005.4
20260501201554 28 66 0.0 4.8 0.00 0.00 0.00 26 1005.6
20260501201050 28 19 4.8 4.8 0.00 0.00 0.00 27 1005.8
20260501200548 28 337 4.8 6.4 0.00 0.00 0.00 27 1005.8
20260501200045 28 349 3.2 4.8 0.00 0.00 0.00 30 1005.7
20260501195542 28 77 1.6 4.8 0.00 0.00 0.00 28 1005.8
20260501195038 28 39 0.0 6.4 0.00 0.00 0.00 28 1005.9
20260501194533 28 26 4.8 4.8 0.00 0.00 0.00 29 1005.9
20260501194029 27 342 3.2 4.8 0.00 0.00 0.00 30 1005.9
20260501193527 27 345 6.4 6.4 0.00 0.00 0.00 28 1006.0
20260501193026 27 33 3.2 3.2 0.00 0.00 0.00 28 1006.0
20260501192522 27 30 3.2 4.8 0.00 0.00 0.00 30 1006.1
20260501192020 28 90 1.6 8.0 0.00 0.00 0.00 28 1006.3
20260501191516 27 32 0.0 3.2 0.00 0.00 0.00 30 1006.3
20260501191014 27 16 3.2 3.2 0.00 0.00 0.00 30 1006.5
20260501190509 27 40 3.2 4.8 0.00 0.00 0.00 32 1006.3
20260501190005 27 17 6.4 6.4 0.00 0.00 0.00 31 1006.4
20260501185501 27 23 1.6 4.8 0.00 0.00 0.00 31 1006.6
20260501184957 27 314 6.4 8.0 0.00 0.00 0.00 30 1006.4
20260501184453 27 105 3.2 4.8 0.00 0.00 0.00 31 1006.6
20260501183948 27 330 6.4 6.4 0.00 0.00 0.00 31 1006.7
20260501183446 27 70 0.0 4.8 0.00 0.00 0.00 32 1006.9
20260501182942 26 56 0.0 4.8 0.00 0.00 0.00 34 1007.0
20260501182439 26 19 3.2 4.8 0.00 0.00 0.00 33 1006.9
20260501181935 26 20 1.6 4.8 0.00 0.00 0.00 33 1006.9
20260501181433 26 63 3.2 3.2 0.00 0.00 0.00 33 1007.0
20260501180930 26 20 0.0 6.4 0.00 0.00 0.00 33 1006.9
20260501180427 26 15 3.2 3.2 0.00 0.00 0.00 35 1007.1
20260501175923 27 24 3.2 8.0 0.00 0.00 0.00 32 1007.3
20260501175421 27 21 3.2 3.2 0.00 0.00 0.00 33 1007.3
20260501174917 26 26 3.2 3.2 0.00 0.00 0.00 33 1007.2
20260501174415 26 60 3.2 4.8 0.00 0.00 0.00 34 1007.6
20260501173912 26 41 3.2 3.2 0.00 0.00 0.00 33 1007.5
20260501173410 26 56 3.2 6.4 0.00 0.00 0.00 32 1007.7
20260501172905 25 14 4.8 8.0 0.00 0.00 0.00 33 1007.2
20260501172400 26 99 0.0 3.2 0.00 0.00 0.00 33 1007.7
20260501171856 26 321 4.8 6.4 0.00 0.00 0.00 34 1007.6
20260501171353 26 18 1.6 4.8 0.00 0.00 0.00 34 1007.5
20260501170849 25 69 0.0 3.2 0.00 0.00 0.00 34 1007.8
20260501170346 25 0 3.2 8.0 0.00 0.00 0.00 35 1007.6
20260501165844 25 48 3.2 4.8 0.00 0.00 0.00 36 1007.6
20260501165342 24 19 3.2 3.2 0.00 0.00 0.00 36 1007.6
20260501164839 23 40 0.0 3.2 0.00 0.00 0.00 38 1007.7
20260501164337 23 53 3.2 3.2 0.00 0.00 0.00 37 1007.6
20260501163832 24 340 4.8 6.4 0.00 0.00 0.00 36 1007.7
20260501163329 23 54 1.6 3.2 0.00 0.00 0.00 37 1007.8
20260501162826 23 23 3.2 3.2 0.00 0.00 0.00 38 1007.7
20260501162323 23 16 3.2 3.2 0.00 0.00 0.00 39 1007.5
20260501161820 23 81 0.0 3.2 0.00 0.00 0.00 38 1007.5
20260501161317 23 19 3.2 8.0 0.00 0.00 0.00 38 1007.8
20260501160813 23 35 1.6 3.2 0.00 0.00 0.00 39 1007.5
20260501160310 23 66 1.6 4.8 0.00 0.00 0.00 38 1007.5
20260501155808 22 66 1.6 3.2 0.00 0.00 0.00 39 1007.6
20260501155306 23 23 1.6 3.2 0.00 0.00 0.00 41 1007.3
20260501154801 22 54 1.6 4.8 0.00 0.00 0.00 40 1007.3
20260501154258 22 69 0.0 4.8 0.00 0.00 0.00 40 1007.5
20260501153755 22 66 1.6 4.8 0.00 0.00 0.00 40 1007.2
20260501153253 22 69 0.0 3.2 0.00 0.00 0.00 41 1006.9